GW0531 Weather Reports


time (UTC)temp
C
wind
direction
speed
KPH
gust
KPH
rain 1hr
cm
rain 24hr
cm
rain mn
cm
humidity
%
barometer
mb
20260509112626 17 180 0.0 0.0 0.00 0.00 0.00 95 1014.3
20260509112124 16 293 0.0 0.0 0.00 0.00 0.00 95 1014.3
20260509111620 16 354 0.0 1.6 0.00 0.00 0.00 95 1014.0
20260509111117 16 309 0.0 0.0 0.00 0.00 0.00 95 1014.0
20260509110614 16 323 0.0 1.6 0.00 0.00 0.00 95 1013.9
20260509110112 16 322 0.0 0.0 0.00 0.00 0.00 95 1013.7
20260509105610 16 335 0.0 1.6 0.00 0.00 0.00 95 1013.7
20260509105107 16 338 0.0 3.2 0.00 0.00 0.00 95 1013.7
20260509104603 16 32 0.0 1.6 0.00 0.00 0.00 94 1013.6
20260509104100 16 322 0.0 0.0 0.00 0.00 0.00 94 1013.5
20260509103558 16 89 0.0 0.0 0.00 0.00 0.00 94 1013.5
20260509103056 16 37 0.0 0.0 0.00 0.00 0.00 94 1013.3
20260509102553 16 50 0.0 1.6 0.00 0.00 0.00 94 1013.3
20260509102050 16 40 3.2 3.2 0.00 0.00 0.00 94 1013.4
20260509101546 16 89 0.0 1.6 0.00 0.00 0.00 94 1013.4
20260509101043 16 65 1.6 1.6 0.00 0.00 0.00 94 1013.4
20260509100540 16 320 0.0 1.6 0.00 0.00 0.00 93 1013.3
20260509100038 16 37 0.0 1.6 0.00 0.00 0.00 93 1013.2
20260509095534 16 50 0.0 1.6 0.00 0.00 0.00 93 1013.3
20260509095032 16 45 1.6 1.6 0.00 0.00 0.00 93 1013.4
20260509094528 16 309 0.0 0.0 0.00 0.00 0.00 93 1013.6
20260509094025 16 309 0.0 1.6 0.00 0.00 0.00 93 1013.6
20260509093523 16 48 0.0 1.6 0.00 0.00 0.00 93 1013.5
20260509093021 16 283 0.0 0.0 0.00 0.00 0.00 93 1013.7
20260509092518 16 283 0.0 0.0 0.00 0.00 0.00 92 1013.6
20260509092017 16 315 0.0 1.6 0.00 0.00 0.00 92 1013.6
20260509091514 16 309 0.0 0.0 0.00 0.00 0.00 92 1013.6
20260509091010 16 326 0.0 0.0 0.00 0.00 0.00 92 1013.6
20260509090508 16 76 0.0 1.6 0.00 0.00 0.00 92 1013.8
20260509090006 16 296 0.0 0.0 0.00 0.00 0.00 92 1014.0
20260509085502 16 309 0.0 1.6 0.00 0.00 0.00 92 1014.0
20260509084958 16 157 0.0 0.0 0.00 0.00 0.00 92 1013.7
20260509084455 16 151 0.0 1.6 0.00 0.00 0.00 92 1013.7
20260509083953 16 142 0.0 1.6 0.00 0.00 0.00 92 1013.8
20260509083450 16 157 0.0 1.6 0.00 0.00 0.00 92 1013.6
20260509082946 16 302 0.0 0.0 0.00 0.00 0.00 92 1013.6
20260509082444 16 309 3.2 3.2 0.00 0.00 0.00 92 1013.4
20260509081941 16 130 0.0 3.2 0.00 0.00 0.00 91 1013.3
20260509081438 16 64 3.2 3.2 0.00 0.00 0.00 91 1013.5
20260509080935 16 89 0.0 0.0 0.00 0.00 0.00 91 1014.1
20260509080433 16 157 0.0 1.6 0.00 0.00 0.00 91 1014.1
20260509075931 16 124 0.0 1.6 0.00 0.00 0.00 91 1014.2
20260509075428 16 315 0.0 1.6 0.00 0.00 0.00 91 1014.2
20260509074926 16 22 0.0 3.2 0.00 0.00 0.00 90 1014.1
20260509074423 16 180 0.0 0.0 0.00 0.00 0.00 90 1014.2
20260509073919 16 202 0.0 0.0 0.00 0.00 0.00 90 1014.2
20260509073416 17 0 0.0 1.6 0.00 0.00 0.00 90 1014.1
20260509072912 17 174 0.0 1.6 0.00 0.00 0.00 90 1013.8
20260509072409 17 61 0.0 1.6 0.00 0.00 0.00 90 1013.8
20260509071905 17 21 1.6 1.6 0.00 0.00 0.00 90 1013.8
20260509071403 17 322 0.0 0.0 0.00 0.00 0.00 90 1013.9
20260509070900 17 304 0.0 1.6 0.00 0.00 0.00 89 1014.0
20260509070356 17 315 0.0 0.0 0.00 0.00 0.00 89 1013.9
20260509065852 17 32 0.0 3.2 0.00 0.00 0.00 89 1014.1
20260509065349 17 49 0.0 1.6 0.00 0.00 0.00 89 1014.1
20260509064844 17 336 0.0 1.6 0.00 0.00 0.00 89 1014.3
20260509064342 17 19 0.0 1.6 0.00 0.00 0.00 89 1014.2
20260509063840 17 293 0.0 0.0 0.00 0.00 0.00 89 1014.5
20260509063336 17 303 0.0 1.6 0.00 0.00 0.00 88 1014.4
20260509062833 17 0 0.0 0.0 0.00 0.00 0.00 88 1014.3
20260509062330 17 45 0.0 0.0 0.00 0.00 0.00 88 1014.5
20260509061827 17 35 0.0 3.2 0.00 0.00 0.00 88 1014.6
20260509061326 17 46 3.2 3.2 0.00 0.00 0.00 87 1014.9
20260509060822 17 6 0.0 0.0 0.00 0.00 0.00 87 1015.5
20260509060319 17 303 3.2 3.2 0.00 0.00 0.00 87 1015.5
20260509055814 17 189 0.0 3.2 0.00 0.00 0.00 87 1015.3
20260509055310 17 174 0.0 1.6 0.00 0.00 0.00 87 1015.1
20260509054807 17 358 1.6 4.8 0.00 0.00 0.00 87 1014.6
20260509054304 17 173 0.0 1.6 0.00 0.00 0.00 87 1015.2
20260509053802 17 37 0.0 1.6 0.00 0.00 0.00 87 1014.9
20260509053259 17 44 0.0 3.2 0.00 0.00 0.00 87 1015.0
20260509052757 17 154 3.2 3.2 0.00 0.00 0.00 86 1015.1
20260509052254 17 32 0.0 1.6 0.00 0.00 0.00 86 1014.9
20260509051752 17 15 3.2 3.2 0.00 0.00 0.00 86 1014.8
20260509051250 17 44 0.0 1.6 0.00 0.00 0.00 86 1015.2
20260509050746 17 72 1.6 1.6 0.00 0.00 0.00 87 1015.7
20260509050242 17 314 3.2 3.2 0.00 0.00 0.00 86 1015.7
20260509045740 17 19 1.6 3.2 0.00 0.00 0.00 86 1015.7
20260509045237 17 293 0.0 0.0 0.00 0.00 0.00 86 1015.8
20260509044734 17 72 1.6 3.2 0.00 0.00 0.00 86 1015.4
20260509044232 17 135 0.0 0.0 0.00 0.00 0.00 86 1015.8
20260509043728 17 136 0.0 1.6 0.00 0.00 0.00 86 1016.2
20260509043224 17 64 1.6 1.6 0.00 0.00 0.00 85 1016.2
20260509042720 17 15 0.0 0.0 0.00 0.00 0.00 85 1016.8
20260509042217 17 352 0.0 1.6 0.00 0.00 0.00 85 1016.6
20260509041714 17 300 3.2 3.2 0.00 0.00 0.00 85 1016.3
20260509041210 17 37 0.0 1.6 0.00 0.00 0.00 85 1016.0
20260509040709 17 43 0.0 0.0 0.00 0.00 0.00 85 1016.0
20260509040205 17 174 0.0 1.6 0.00 0.00 0.00 84 1016.1
20260509035702 17 77 0.0 0.0 0.00 0.00 0.00 84 1016.4
20260509035159 17 83 1.6 3.2 0.00 0.00 0.00 84 1016.5
20260509034656 17 124 0.0 0.0 0.00 0.00 0.00 84 1016.6
20260509034153 17 160 0.0 0.0 0.00 0.00 0.00 83 1016.6
20260509033650 17 38 0.0 1.6 0.00 0.00 0.00 84 1016.6
20260509033147 17 326 0.0 0.0 0.00 0.00 0.00 84 1016.8
20260509032645 17 29 0.0 1.6 0.00 0.00 0.00 83 1016.9
20260509032141 17 309 0.0 0.0 0.00 0.00 0.00 83 1016.9
20260509031639 17 325 0.0 3.2 0.00 0.00 0.00 83 1016.8
20260509031136 17 50 0.0 1.6 0.00 0.00 0.00 83 1016.8
20260509030635 17 24 1.6 3.2 0.00 0.00 0.00 83 1016.8
20260509030132 17 8 1.6 1.6 0.00 0.00 0.00 82 1017.0
20260509025627 17 44 0.0 0.0 0.00 0.00 0.00 82 1017.0
20260509025123 17 44 0.0 0.0 0.00 0.00 0.00 82 1016.9
20260509024619 17 89 0.0 1.6 0.00 0.00 0.00 81 1017.2
20260509024115 17 217 0.0 0.0 0.00 0.00 0.00 81 1016.8
20260509023614 17 37 0.0 1.6 0.00 0.00 0.00 79 1016.7
20260509023110 17 32 0.0 1.6 0.00 0.00 0.00 80 1016.5
20260509022606 17 353 0.0 1.6 0.00 0.00 0.00 80 1016.7
20260509022104 17 86 0.0 1.6 0.00 0.00 0.00 79 1016.6
20260509021601 17 322 0.0 1.6 0.00 0.00 0.00 80 1016.7
20260509021058 18 311 1.6 1.6 0.00 0.00 0.00 79 1016.7
20260509020557 17 307 0.0 3.2 0.00 0.00 0.00 79 1016.6
20260509020053 18 8 1.6 3.2 0.00 0.00 0.00 79 1016.7
20260509015552 18 50 0.0 1.6 0.00 0.00 0.00 79 1016.4
20260509015049 18 44 1.6 1.6 0.00 0.00 0.00 78 1016.4
20260509014545 18 130 0.0 0.0 0.00 0.00 0.00 78 1016.3
20260509014042 18 142 0.0 0.0 0.00 0.00 0.00 78 1016.5
20260509013539 18 129 0.0 0.0 0.00 0.00 0.00 77 1016.5
20260509013034 18 37 0.0 1.6 0.00 0.00 0.00 77 1016.5
20260509012531 18 66 0.0 0.0 0.00 0.00 0.00 76 1016.6
20260509012028 18 326 0.0 1.6 0.00 0.00 0.00 76 1016.5
20260509011526 18 313 1.6 1.6 0.00 0.00 0.00 76 1016.6
20260509011023 18 50 0.0 0.0 0.00 0.00 0.00 76 1016.3
20260509010521 18 326 0.0 1.6 0.00 0.00 0.00 76 1016.4
20260509010017 18 37 0.0 0.0 0.00 0.00 0.00 75 1016.2
20260509005515 18 89 0.0 3.2 0.00 0.00 0.00 75 1016.2
20260509005015 18 309 0.0 0.0 0.00 0.00 0.00 74 1016.3
20260509004512 18 32 0.0 1.6 0.00 0.00 0.00 74 1016.2
20260509004009 18 233 0.0 0.0 0.00 0.00 0.00 74 1016.1
20260509003508 18 217 0.0 1.6 0.00 0.00 0.00 74 1016.1
20260509003004 18 72 0.0 1.6 0.00 0.00 0.00 73 1015.8
20260509002502 18 58 3.2 3.2 0.00 0.00 0.00 72 1015.8
20260509001959 18 322 0.0 1.6 0.00 0.00 0.00 72 1015.8
20260509001455 18 78 1.6 3.2 0.00 0.00 0.00 71 1015.9
20260509000952 18 81 0.0 3.2 0.00 0.00 0.00 71 1015.9
20260509000451 19 63 1.6 3.2 0.00 0.00 0.00 70 1015.9
20260508235946 19 103 1.6 3.2 0.00 0.00 0.00 70 1015.7
20260508235444 19 38 0.0 1.6 0.00 0.00 0.00 69 1015.8
20260508234940 19 58 0.0 3.2 0.00 0.00 0.00 68 1015.7
20260508234437 19 76 0.0 3.2 0.00 0.00 0.00 69 1015.6
20260508233935 19 110 0.0 1.6 0.00 0.00 0.00 68 1015.3
20260508233434 20 94 3.2 8.0 0.00 0.00 0.00 67 1015.4
20260508232930 20 63 0.0 3.2 0.00 0.00 0.00 68 1015.4
20260508232428 20 329 3.2 3.2 0.00 0.00 0.00 68 1015.5
20260508231925 20 190 0.0 4.8 0.00 0.00 0.00 68 1015.5
20260508231422 20 42 3.2 3.2 0.00 0.00 0.00 68 1015.4
20260508230919 20 96 1.6 3.2 0.00 0.00 0.00 69 1015.6
20260508230415 20 120 3.2 3.2 0.00 0.00 0.00 68 1015.7
20260508225912 20 180 1.6 1.6 0.00 0.00 0.00 69 1015.7
20260508225409 20 129 0.0 4.8 0.00 0.00 0.00 67 1015.6
20260508224907 20 85 1.6 4.8 0.00 0.00 0.00 67 1015.8
20260508224404 20 55 0.0 3.2 0.00 0.00 0.00 67 1015.7
20260508223902 20 138 3.2 3.2 0.00 0.00 0.00 68 1015.5
20260508223359 20 44 0.0 3.2 0.00 0.00 0.00 67 1015.2
20260508222856 20 121 0.0 6.4 0.00 0.00 0.00 67 1015.6
20260508222353 20 147 0.0 3.2 0.00 0.00 0.00 67 1015.5
20260508221850 20 248 3.2 4.8 0.00 0.00 0.00 67 1015.4
20260508221345 20 352 4.8 4.8 0.00 0.00 0.00 65 1015.4
20260508220842 20 123 1.6 6.4 0.00 0.00 0.00 65 1015.5
20260508220338 20 144 1.6 8.0 0.00 0.00 0.00 65 1015.5
20260508215835 21 258 4.8 6.4 0.00 0.00 0.00 65 1015.6
20260508215332 21 106 3.2 6.4 0.00 0.00 0.00 64 1015.5
20260508214829 21 120 3.2 3.2 0.00 0.00 0.00 65 1015.4
20260508214326 21 143 0.0 4.8 0.00 0.00 0.00 64 1015.3
20260508213822 21 146 0.0 3.2 0.00 0.00 0.00 63 1015.5
20260508213319 21 334 3.2 3.2 0.00 0.00 0.00 63 1015.6
20260508212815 21 125 3.2 4.8 0.00 0.00 0.00 62 1015.5
20260508212312 22 76 8.0 9.7 0.00 0.00 0.00 61 1015.7
20260508211808 22 136 3.2 3.2 0.00 0.00 0.00 62 1015.6
20260508211303 22 206 1.6 6.4 0.00 0.00 0.00 61 1015.8
20260508210802 22 171 4.8 4.8 0.00 0.00 0.00 61 1015.6
20260508210258 22 195 3.2 6.4 0.00 0.00 0.00 59 1015.5
20260508205755 22 148 6.4 6.4 0.00 0.00 0.00 59 1015.4
20260508205251 22 120 0.0 12.9 0.00 0.00 0.00 58 1015.5
20260508204748 23 92 6.4 9.7 0.00 0.00 0.00 55 1015.3
20260508204244 23 167 1.6 11.3 0.00 0.00 0.00 56 1015.0
20260508203740 23 70 4.8 6.4 0.00 0.00 0.00 55 1015.1
20260508203237 23 106 4.8 6.4 0.00 0.00 0.00 56 1015.3
20260508202732 23 259 3.2 8.0 0.00 0.00 0.00 58 1015.4
20260508202230 23 149 1.6 8.0 0.00 0.00 0.00 57 1015.2
20260508201727 23 138 3.2 9.7 0.00 0.00 0.00 56 1015.2
20260508201223 23 137 4.8 8.0 0.00 0.00 0.00 56 1015.0
20260508200720 25 115 6.4 9.7 0.00 0.00 0.00 50 1015.2
20260508200216 26 149 3.2 3.2 0.00 0.00 0.00 44 1015.5
20260508195713 25 273 3.2 6.4 0.00 0.00 0.00 45 1015.5
20260508195209 25 306 0.0 3.2 0.00 0.00 0.00 43 1015.5
20260508194706 25 20 4.8 4.8 0.00 0.00 0.00 44 1015.6
20260508194203 25 315 4.8 8.0 0.00 0.00 0.00 45 1015.6
20260508193700 25 120 1.6 6.4 0.00 0.00 0.00 42 1015.9
20260508193157 25 261 3.2 6.4 0.00 0.00 0.00 44 1016.0
20260508192653 25 121 6.4 6.4 0.00 0.00 0.00 43 1015.9
20260508192151 25 345 3.2 4.8 0.00 0.00 0.00 47 1015.9
20260508191648 25 246 1.6 6.4 0.00 0.00 0.00 44 1015.8
20260508191144 25 279 1.6 9.7 0.00 0.00 0.00 45 1015.9
20260508190641 25 0 3.2 6.4 0.00 0.00 0.00 46 1016.0
20260508190138 25 1 6.4 6.4 0.00 0.00 0.00 44 1016.1
20260508185635 25 233 8.0 8.0 0.00 0.00 0.00 44 1016.2
20260508185132 25 251 1.6 6.4 0.00 0.00 0.00 43 1015.9
20260508184629 25 358 4.8 6.4 0.00 0.00 0.00 43 1016.2
20260508184126 25 329 3.2 6.4 0.00 0.00 0.00 44 1016.3
20260508183623 25 263 3.2 6.4 0.00 0.00 0.00 46 1016.3
20260508183119 24 129 0.0 4.8 0.00 0.00 0.00 45 1016.3
20260508182615 25 172 1.6 6.4 0.00 0.00 0.00 44 1016.5
20260508182112 25 218 3.2 9.7 0.00 0.00 0.00 43 1016.3
20260508181607 25 331 4.8 6.4 0.00 0.00 0.00 44 1016.6
20260508181105 25 21 3.2 3.2 0.00 0.00 0.00 46 1016.6
20260508180601 24 269 0.0 4.8 0.00 0.00 0.00 45 1016.6
20260508180058 25 116 8.0 9.7 0.00 0.00 0.00 43 1016.6
20260508175554 25 346 4.8 4.8 0.00 0.00 0.00 43 1016.7
20260508175052 24 188 1.6 6.4 0.00 0.00 0.00 44 1016.9
20260508174549 24 191 1.6 3.2 0.00 0.00 0.00 44 1016.9
20260508174046 23 150 0.0 6.4 0.00 0.00 0.00 44 1016.8
20260508173543 24 54 6.4 6.4 0.00 0.00 0.00 44 1017.0
20260508173039 23 286 3.2 6.4 0.00 0.00 0.00 44 1017.3
20260508172536 23 308 4.8 9.7 0.00 0.00 0.00 44 1017.0
20260508172033 24 244 6.4 6.4 0.00 0.00 0.00 44 1017.1
20260508171529 24 288 4.8 8.0 0.00 0.00 0.00 45 1017.2
20260508171026 23 62 0.0 3.2 0.00 0.00 0.00 44 1017.3
20260508170523 23 216 3.2 6.4 0.00 0.00 0.00 42 1017.5
20260508170020 23 223 3.2 8.0 0.00 0.00 0.00 46 1017.6
20260508165518 24 191 3.2 6.4 0.00 0.00 0.00 44 1017.4
20260508165014 23 307 0.0 6.4 0.00 0.00 0.00 46 1017.4
20260508164511 23 35 3.2 6.4 0.00 0.00 0.00 44 1017.6
20260508164007 23 117 0.0 4.8 0.00 0.00 0.00 44 1017.4
20260508163505 23 115 3.2 6.4 0.00 0.00 0.00 45 1017.7
20260508163001 23 125 4.8 8.0 0.00 0.00 0.00 44 1017.6
20260508162458 23 349 4.8 6.4 0.00 0.00 0.00 46 1017.7
20260508161955 23 331 3.2 6.4 0.00 0.00 0.00 49 1017.8
20260508161452 22 1 1.6 6.4 0.00 0.00 0.00 46 1018.1
20260508160949 23 102 6.4 12.9 0.00 0.00 0.00 46 1017.8
20260508160448 22 82 0.0 8.0 0.00 0.00 0.00 46 1018.1
20260508155944 22 98 6.4 8.0 0.00 0.00 0.00 47 1018.4
20260508155441 22 292 6.4 6.4 0.00 0.00 0.00 47 1018.4
20260508154938 22 28 0.0 4.8 0.00 0.00 0.00 50 1018.6
20260508154436 22 109 6.4 11.3 0.00 0.00 0.00 48 1018.4
20260508153932 22 90 3.2 9.7 0.00 0.00 0.00 50 1018.8
20260508153429 22 83 3.2 9.7 0.00 0.00 0.00 48 1018.4
20260508152925 22 14 3.2 9.7 0.00 0.00 0.00 48 1018.4
20260508152422 22 309 1.6 6.4 0.00 0.00 0.00 49 1018.7
20260508151919 22 40 6.4 8.0 0.00 0.00 0.00 47 1018.7
20260508151415 22 22 3.2 12.9 0.00 0.00 0.00 50 1018.6
20260508150912 22 323 6.4 6.4 0.00 0.00 0.00 49 1018.6
20260508150408 21 214 3.2 3.2 0.00 0.00 0.00 53 1018.5
20260508145905 21 235 3.2 8.0 0.00 0.00 0.00 53 1018.6
20260508145401 21 262 3.2 6.4 0.00 0.00 0.00 53 1018.6
20260508144858 21 118 3.2 8.0 0.00 0.00 0.00 52 1018.7
20260508144356 20 39 6.4 9.7 0.00 0.00 0.00 54 1018.7
20260508143853 21 34 6.4 9.7 0.00 0.00 0.00 54 1018.5
20260508143350 20 122 3.2 16.1 0.00 0.00 0.00 53 1018.4
20260508142847 21 78 6.4 9.7 0.00 0.00 0.00 54 1018.4
20260508142344 21 16 8.0 9.7 0.00 0.00 0.00 54 1018.4
20260508141840 20 352 3.2 4.8 0.00 0.00 0.00 59 1018.2
20260508141337 20 50 0.0 6.4 0.00 0.00 0.00 57 1018.3
20260508140835 20 316 3.2 6.4 0.00 0.00 0.00 59 1018.4
20260508140331 19 306 3.2 6.4 0.00 0.00 0.00 59 1018.3
20260508135827 18 98 6.4 14.5 0.00 0.00 0.00 62 1018.0
20260508135324 19 291 3.2 9.7 0.00 0.00 0.00 63 1018.1
20260508134820 19 302 3.2 6.4 0.00 0.00 0.00 63 1018.2
20260508134317 18 314 3.2 3.2 0.00 0.00 0.00 67 1018.2
20260508133813 18 335 3.2 4.8 0.00 0.00 0.00 65 1018.3
20260508133311 18 14 4.8 8.0 0.00 0.00 0.00 68 1018.0
20260508132808 17 256 1.6 4.8 0.00 0.00 0.00 70 1017.9
20260508132306 17 287 3.2 6.4 0.00 0.00 0.00 71 1018.0
20260508131802 17 52 6.4 12.9 0.00 0.00 0.00 73 1017.9
20260508131258 16 273 1.6 4.8 0.00 0.00 0.00 74 1017.9
20260508130754 16 130 0.0 6.4 0.00 0.00 0.00 75 1017.9
20260508130252 16 149 6.4 6.4 0.00 0.00 0.00 77 1017.9
20260508125747 16 65 0.0 6.4 0.00 0.00 0.00 77 1017.9
20260508125244 16 317 1.6 4.8 0.00 0.00 0.00 80 1017.7
20260508124742 16 356 4.8 8.0 0.00 0.00 0.00 80 1017.8
20260508124239 16 353 0.0 3.2 0.00 0.00 0.00 81 1017.8
20260508123737 16 355 1.6 4.8 0.00 0.00 0.00 83 1017.6
20260508123235 16 103 0.0 3.2 0.00 0.00 0.00 84 1017.6
20260508122731 16 0 0.0 3.2 0.00 0.00 0.00 84 1017.5
20260508122228 15 354 0.0 3.2 0.00 0.00 0.00 85 1017.5
20260508121725 15 354 1.6 4.8 0.00 0.00 0.00 86 1017.3
20260508121224 15 136 0.0 3.2 0.00 0.00 0.00 86 1016.9
20260508120721 15 19 0.0 3.2 0.00 0.00 0.00 88 1017.0
20260508120219 15 44 0.0 1.6 0.00 0.00 0.00 89 1017.0
20260508115716 15 322 0.0 1.6 0.00 0.00 0.00 89 1017.1
20260508115213 15 310 0.0 3.2 0.00 0.00 0.00 89 1017.0
20260508114710 15 278 1.6 1.6 0.00 0.00 0.00 89 1017.0
20260508114207 15 284 3.2 3.2 0.00 0.00 0.00 89 1016.8
20260508113703 15 355 0.0 3.2 0.00 0.00 0.00 90 1016.6
20260508113202 15 333 0.0 3.2 0.00 0.00 0.00 92 1016.4